AirNav   Air Wisconsin pilot careers
 
 381 users online  

8WA3 Valley Medical Center Heliport
Renton, Washington, USA

GOING TO RENTON?


FAA INFORMATION EFFECTIVE 09 NOVEMBER 2017

Location

FAA Identifier: 8WA3
Lat/Long: 47-26-30.4700N / 122-12-52.3900W
47-26.507833N / 122-12.873167W
47.4417972 / -122.2145528
(estimated)
Elevation: 100 ft. / 30 m (estimated)
Variation: 20E (1985)
From city: 3 miles S of RENTON, WA
Time zone: UTC -8 (UTC -7 during Daylight Saving Time)
Zip code: 98055

Heliport Operations

Heliport use: Private use, MEDICAL USE.
Activation date: 03/1976
Control tower: no
ARTCC: SEATTLE CENTER
FSS: SEATTLE FLIGHT SERVICE STATION
Attendance: UNATNDD
Wind indicator: lighted
Segmented circle: no
Lights: SS-SR

Heliport Communications

WX ASOS at RNT (3 nm N): PHONE 425-255-6080
WX ASOS at SEA (4 nm W): PHONE 206-431-2834
WX ASOS at BFI (6 nm NW): PHONE 206-763-6904
WX ASOS at TIW (18 nm SW): PHONE 253-858-6507

Nearby radio navigation aids

VOR radial/distance  VOR name  Freq  Var
SEAr065/3.9SEATTLE VORTAC116.8019E
TCMr016/20.6MCCHORD VORTAC109.6015E
PAEr155/28.8PAINE VOR/DME110.6020E
OLMr026/39.8OLYMPIA VORTAC113.4019E

 
NDB name  Hdg/Dist  Freq  Var  ID
RENTON163/3.235317ERNT .-. -. -
PARKK130/6.628115EHPK .... .--. -.-
NOLLA133/13.536215EBF -... ..-.
GRAYE026/23.621616EGRF --. .-. ..-.
LACOMAS012/29.532816ELAC .-.. .- -.-.
MASON COUNTY053/37.334819EMNC -- -. -.-.

Heliport Services

Runway Information

Helipad H1

Dimensions: 118 x 118 ft. / 36 x 36 m
Surface: asphalt, in fair condition
Runway edge lights: PERIMETER LGTS.
Latitude: 47-26.507833N
Longitude: 122-12.873167W
Elevation: 100.0 ft.
Traffic pattern: leftleft
Markings: none, in fair condition

Heliport Ownership and Management from official FAA records

Ownership: Publicly-owned
Owner: PUB.HOSPITAL DISTRICT-1
400 SOUTH 43RD ST
RENTON, WA 98055
Phone 425-228-3440
Manager: RICHARD D. ROODMAN, ADMIN.
400 SOUTH 43RD ST.
RENTON, WA 98055
Phone 425-228-3440
GARRY MAITREJEAN - 425-228-3440

Instrument Procedures

There are no published instrument procedures at 8WA3.

Some nearby airports with instrument procedures:

KRNT - Renton Municipal Airport (3 nm N)
KSEA - Seattle-Tacoma International Airport (4 nm W)
KBFI - Boeing Field/King County International Airport (6 nm NW)
S50 - Auburn Municipal Airport (7 nm S)
KTIW - Tacoma Narrows Airport (18 nm SW)
 
Loc | Ops | Rwys | IFR | FBO | Links
Com | Nav | Svcs | Stats | Notes


 
Area around 8WA3 (Valley Medical Center Heliport)
 
Road maps at: MapQuest Bing Google
 
Aerial photo
No photo
 
Sectional chart

 
Airport distance calculator
Flying to Valley Medical Center Heliport? Find the distance to fly.

From to 8WA3

Sunrise and sunset
Times for 25-Nov-2017
 Local
(UTC-8)
 Zulu
(UTC)
Morning civil twilight06:5414:54
Sunrise07:2915:29
Sunset16:2300:23
Evening civil twilight16:5700:57

Current date and time
Zulu (UTC)  25-Nov-2017 08:02:48
Local (UTC-8)  25-Nov-2017 00:02:48
 
METAR
KRNT 
3nm N 
250753Z AUTO 15004KT 10SM CLR 09/06 A3010 RMK AO2 SLP198 T00890056 401220089
KSEA 
4nm W 
250753Z 15008KT 10SM FEW030 BKN050 BKN230 09/03 A3010 RMK AO2 SLP199 T00940033 401110078
KBFI 
8nm NW 
250753Z 13006KT 10SM BKN050 09/04 A3010 RMK AO2 SLP192 T00940044 401170083
KTIW 
18nm SW 
250753Z AUTO 17006KT 10SM BKN060 08/05 A3010 RMK AO2 SLP194 T00830050 401000072
TAF
KSEA 
4nm W 
250521Z 2506/2612 18008KT P6SM BKN040 FM251000 16005KT P6SM SCT100 SCT250 FM251600 12006KT P6SM BKN120 OVC200 FM251900 04006KT P6SM OVC100 FM260100 04006KT P6SM -RA OVC050
KBFI 
8nm NW 
250521Z 2506/2606 17007KT P6SM BKN045 FM251000 15006KT P6SM SCT100 SCT250 FM251600 12003KT P6SM BKN120 OVC250 FM251900 07004KT P6SM OVC100 FM260100 VRB04KT P6SM -RA OVC050
NOTAMs
Click for the latest NOTAMs
NOTAMs are issued by the DoD/FAA and will open in a separate window not controlled by AirNav.

 

 
 

Would you like to see your business listed on this page?

 If your business provides an interesting product or service to pilots, flight crews, aircraft, or users of the Valley Medical Center Heliport, you should consider listing it here.  To start the listing process, click on the button below
 
Add a business
 

Other Pages about Valley Medical Center Heliport

Update a link
 
Copyright © AirNav, LLC. All rights reserved. Privacy Policy  Contact